Tracking 20041 objects as of 22-Nov-2019
Live streaming from Space Station
objects crossing your sky now

ARIANE 2 DEB

Track ARIANE 2 DEB now!


NORAD ID: 26717
Int'l Code: 1989-006C
Perigee: 594.1 km
Apogee: 35,688.4 km
Inclination: 8.7 °
Period: 636.6 minutes
Semi major axis: 24512 km
RCS: 4.1288 m2 (large)
Launch date: January 27, 1989
Source: France (FR)
Launch site: FRENCH GUIANA (FRGUI)

Note: This is SATELLITE DEBRIS
aabbcc
Your satellite tracking list
Your tracking list is empty




NASA's NSSDC Master Catalog

Two Line Element Set (TLE):
1 26717U 89006C   19272.10829219  .00000015  00000-0  94925-3 0  9997
2 26717   8.6574   0.0738 7158510 269.0185  73.4163  2.26218088154912
Source of the keplerian elements: AFSPC